This is the latest recevied weather packets stored in our database for station/object OE2ATN. If no packets are shown the sender has not sent any weather packets the latest 10 day(s).
| Time | Temp. | Humidity | Pressure | Rain* | Wind** | Luminosity | Snow |
|---|---|---|---|---|---|---|---|
| 1778001304 | 18.89° C | 46% | 1014 hPa | 0 mm | - | - | - |
| 1778001004 | 19.44° C | 46% | 1014.3 hPa | 0 mm | - | - | - |
| 1778000704 | 19.44° C | 45% | 1014.2 hPa | 0 mm | - | - | - |
| 1778000403 | 18.89° C | 45% | 1014.2 hPa | 0 mm | - | - | - |
| 1778000103 | 18.89° C | 45% | 1014.2 hPa | 0 mm | - | - | - |
| 1777999803 | 18.89° C | 46% | 1014.3 hPa | 0 mm | - | - | - |
| 1777999502 | 18.89° C | 43% | 1014.2 hPa | 0 mm | - | - | - |
| 1777999203 | 18.89° C | 44% | 1014.3 hPa | 0 mm | - | - | - |
| 1777998903 | 19.44° C | 45% | 1014.3 hPa | 0 mm | - | - | - |
| 1777998603 | 18.89° C | 46% | 1014.4 hPa | 0 mm | - | - | - |
| 1777998302 | 18.89° C | 46% | 1014.5 hPa | 0 mm | - | - | - |
| 1777998002 | 18.89° C | 47% | 1014.5 hPa | 0 mm | - | - | - |
| 1777997702 | 18.89° C | 47% | 1014.7 hPa | 0 mm | - | - | - |
| 1777997403 | 18.89° C | 45% | 1014.7 hPa | 0 mm | - | - | - |
| 1777997101 | 18.89° C | 46% | 1014.8 hPa | 0 mm | - | - | - |
| 1777996801 | 18.89° C | 46% | 1014.9 hPa | 0 mm | - | - | - |
| 1777996501 | 18.33° C | 48% | 1014.9 hPa | 0 mm | - | - | - |
| 1777996201 | 18.89° C | 49% | 1014.9 hPa | 0 mm | - | - | - |
| 1777995902 | 18.89° C | 48% | 1014.8 hPa | 0 mm | - | - | - |
| 1777995601 | 18.89° C | 48% | 1014.8 hPa | 0 mm | - | - | - |
| 1777995302 | 18.89° C | 45% | 1014.8 hPa | 0 mm | - | - | - |
| 1777995002 | 18.89° C | 47% | 1014.8 hPa | 0 mm | - | - | - |
| 1777994702 | 18.89° C | 46% | 1014.9 hPa | 0 mm | - | - | - |
| 1777994401 | 18.89° C | 44% | 1014.9 hPa | 0 mm | - | - | - |
| 1777994100 | 18.89° C | 44% | 1015 hPa | 0 mm | - | - | - |
* Rain latest hour (hover to see other rain measurements)
** Current wind speed in m/s (hover to see current wind gust speed)